Weather History for Gunnison, CO

Change the Weather History Date:

Sunday, March 10, 2013

  Actual Average Record
Temperature  
Mean Temperature 18 °F -  
Max Temperature 33 °F 38 °F 51 °F (2012)
Min Temperature 3 °F 13 °F -2 °F (1997)
Degree Days  
Heating Degree Days 47    
Moisture  
Dew Point 10 °F    
Average Humidity 65    
Maximum Humidity 100    
Minimum Humidity 41    
Precipitation  
Precipitation 0.00 in - - ()
Sea Level Pressure  
Sea Level Pressure 30.15 in    
Wind  
Wind Speed 4 mph (WSW)    
Max Wind Speed 20 mph    
Max Gust Speed 26 mph    
Visibility 10 miles    
Events      
Averages and records for this station are not official NWS values.
T = Trace of Precipitation, MM = Missing Value Source: NWS Daily Summary

Daily Weather History Graph

Daily Weather History Graph

Search for Another Location

Airport:

Trip Planner

Search our weather history database for the weather conditions in past years. The results will help you decide how hot, cold, wet, or windy it might be!

Date:

Astronomy

Mar. 10, 2013 Rise Set
Actual Time 7:26 AM MDT 7:10 PM MDT
Civil Twilight 6:59 AM MDT 7:36 PM MDT
Nautical Twilight 6:29 AM MDT 8:07 PM MDT
Astronomical Twilight 5:58 AM MDT 8:38 PM MDT
Moon 6:27 AM MDT (3/10) 6:21 PM MDT (3/10)
Length of Visible Light 12h 36m
Length of Day
11h 44m
Waning Crescent, 1% of the Moon is Illuminated
Mar 10
Waning Crescent
Mar 11
New
Mar 19
First Quarter
Mar 27
Full
Apr 2
Last Quarter

Hourly Weather History & Observations

Time (MDT) Temp. Windchill Dew Point Humidity Pressure Visibility Wind Dir Wind Speed Gust Speed Precip Events Conditions
12:15 AM 15.8 °F - 8.6 °F 73% 30.01 in 10.0 mi Calm Calm - N/A   Clear
12:35 AM 17.6 °F - 15.8 °F 93% 30.02 in 10.0 mi Calm Calm - N/A   Clear
12:55 AM 15.8 °F - 12.2 °F 86% 30.03 in 10.0 mi Calm Calm - N/A   Clear
1:15 AM 15.8 °F - 6.8 °F 68% 30.03 in 10.0 mi Calm Calm - N/A   Partly Cloudy
1:35 AM 12.2 °F - 6.8 °F 79% 30.05 in 10.0 mi Calm Calm - N/A   Partly Cloudy
1:55 AM 12.2 °F 6.1 °F 12.2 °F 100% 30.05 in 10.0 mi South 3.5 mph - N/A   Partly Cloudy
3:15 AM 12.2 °F - 8.6 °F 85% 30.05 in 10.0 mi Calm Calm - N/A   Clear
3:35 AM 12.2 °F - 6.8 °F 79% 30.06 in 10.0 mi Calm Calm - N/A   Clear
3:55 AM 10.4 °F - 6.8 °F 85% 30.06 in 10.0 mi Calm Calm - N/A   Clear
4:15 AM 10.4 °F - 8.6 °F 92% 30.06 in 10.0 mi Calm Calm - N/A   Clear
4:35 AM 10.4 °F - 8.6 °F 92% 30.08 in 10.0 mi Calm Calm - N/A   Clear
4:55 AM 10.4 °F - 3.2 °F 73% 30.09 in 10.0 mi Calm Calm - N/A   Clear
5:15 AM 8.6 °F - 1.4 °F 73% 30.10 in 10.0 mi Calm Calm - N/A   Clear
6:15 AM 8.6 °F - 3.2 °F 79% 30.12 in 10.0 mi Calm Calm - N/A   Clear
6:35 AM 6.8 °F - 1.4 °F 79% 30.13 in 10.0 mi Calm Calm - N/A   Clear
6:55 AM 6.8 °F - 5.0 °F 92% 30.13 in 10.0 mi Calm Calm - N/A   Clear
7:15 AM 3.2 °F - -4.0 °F 72% 30.14 in 10.0 mi Calm Calm - N/A   Clear
7:35 AM 5.0 °F - 3.2 °F 92% 30.14 in 10.0 mi Calm Calm - N/A   Clear
8:15 AM 6.8 °F - 6.8 °F 100% 30.16 in 10.0 mi Calm Calm - N/A   Clear
8:35 AM 3.2 °F - -7.6 °F 61% 30.17 in 10.0 mi Calm Calm - N/A   Clear
8:55 AM 3.2 °F - 3.2 °F 100% 30.17 in 10.0 mi Calm Calm - N/A   Clear
9:15 AM 10.4 °F - 5.0 °F 79% 30.18 in 10.0 mi Calm Calm - N/A   Clear
9:35 AM 10.4 °F 2.2 °F 1.4 °F 67% 30.18 in 10.0 mi East 4.6 mph - N/A   Clear
9:55 AM 12.2 °F - 10.4 °F 92% 30.19 in 10.0 mi Calm Calm - N/A   Clear
10:15 AM 12.2 °F - 3.2 °F 67% 30.19 in 10.0 mi Calm Calm - N/A   Clear
10:35 AM 15.8 °F 10.2 °F 6.8 °F 68% 30.18 in 10.0 mi ESE 3.5 mph - N/A   Clear
10:55 AM 17.6 °F 10.7 °F 12.2 °F 79% 30.18 in 10.0 mi East 4.6 mph - N/A   Clear
11:15 AM 23.0 °F - 15.8 °F 74% 30.18 in 10.0 mi Calm Calm - N/A   Clear
11:35 AM 26.6 °F 22.6 °F 12.2 °F 55% 30.17 in 10.0 mi East 3.5 mph - N/A   Clear
11:55 AM 26.6 °F 15.7 °F 8.6 °F 47% 30.17 in 10.0 mi WSW 12.7 mph 18.4 mph N/A   Clear
12:15 PM 28.4 °F 18.0 °F 10.4 °F 47% 30.16 in 10.0 mi WSW 12.7 mph 18.4 mph N/A   Clear
12:35 PM 28.4 °F 16.2 °F 14.0 °F 55% 30.16 in 10.0 mi WSW 17.3 mph 21.9 mph N/A   Clear
12:55 PM 28.4 °F 17.5 °F 8.6 °F 43% 30.16 in 10.0 mi SW 13.8 mph 17.3 mph N/A   Clear
1:15 PM 30.2 °F 19.3 °F 12.2 °F 47% 30.16 in 10.0 mi SW 15.0 mph 19.6 mph N/A   Clear
1:35 PM 30.2 °F 19.3 °F 12.2 °F 47% 30.16 in 10.0 mi WSW 15.0 mph 21.9 mph N/A   Clear
1:55 PM 30.2 °F 19.3 °F 12.2 °F 47% 30.15 in 10.0 mi WSW 15.0 mph 21.9 mph N/A   Clear
2:15 PM 30.2 °F 17.8 °F 12.2 °F 47% 30.14 in 10.0 mi WSW 19.6 mph 26.5 mph N/A   Clear
2:35 PM 32.0 °F 21.6 °F 12.2 °F 44% 30.13 in 10.0 mi WSW 15.0 mph 24.2 mph N/A   Clear
2:55 PM 32.0 °F 21.6 °F 12.2 °F 44% 30.14 in 10.0 mi WSW 15.0 mph 21.9 mph N/A   Clear
3:15 PM 33.8 °F 22.8 °F 12.2 °F 41% 30.14 in 10.0 mi WSW 18.4 mph 24.2 mph N/A   Clear
3:35 PM 32.0 °F 20.5 °F 14.0 °F 48% 30.14 in 10.0 mi SW 18.4 mph 24.2 mph N/A   Clear
3:55 PM 32.0 °F 20.5 °F 14.0 °F 48% 30.14 in 10.0 mi WSW 18.4 mph 24.2 mph N/A   Clear
4:15 PM 33.8 °F 23.5 °F 15.8 °F 48% 30.14 in 10.0 mi WSW 16.1 mph 20.7 mph N/A   Clear
4:35 PM 33.8 °F 22.5 °F 15.8 °F 48% 30.14 in 10.0 mi SW 19.6 mph 25.3 mph N/A   Clear
4:55 PM 33.8 °F 23.2 °F 15.8 °F 48% 30.15 in 10.0 mi WSW 17.3 mph 23.0 mph N/A   Clear
5:15 PM 33.8 °F 24.3 °F 15.8 °F 48% 30.15 in 10.0 mi SW 13.8 mph 21.9 mph N/A   Clear
5:35 PM 33.8 °F 23.5 °F 15.8 °F 48% 30.15 in 10.0 mi WSW 16.1 mph 20.7 mph N/A   Clear
5:55 PM 33.8 °F 24.3 °F 15.8 °F 48% 30.16 in 10.0 mi WSW 13.8 mph 23.0 mph N/A   Clear
6:15 PM 33.8 °F 24.3 °F 15.8 °F 48% 30.16 in 10.0 mi SW 13.8 mph 18.4 mph N/A   Clear
6:35 PM 32.0 °F 22.5 °F 15.8 °F 51% 30.17 in 10.0 mi WSW 12.7 mph 19.6 mph N/A   Clear
6:55 PM 30.2 °F 20.2 °F 14.0 °F 51% 30.17 in 10.0 mi SW 12.7 mph 21.9 mph N/A   Clear
7:15 PM 30.2 °F 21.9 °F 15.8 °F 55% 30.19 in 10.0 mi SW 9.2 mph - N/A   Clear
7:35 PM 30.2 °F 21.9 °F 15.8 °F 55% 30.20 in 10.0 mi WSW 9.2 mph - N/A   Clear
8:15 PM 28.4 °F 19.7 °F 14.0 °F 55% 30.21 in 10.0 mi SW 9.2 mph - N/A   Clear
8:35 PM 28.4 °F 21.2 °F 12.2 °F 51% 30.21 in 10.0 mi SSW 6.9 mph - N/A   Clear
8:55 PM 28.4 °F 22.2 °F 14.0 °F 55% 30.22 in 10.0 mi SSW 5.8 mph - N/A   Clear
9:15 PM 26.6 °F 19.1 °F 12.2 °F 55% 30.22 in 10.0 mi SSW 6.9 mph - N/A   Clear
9:35 PM 26.6 °F - 12.2 °F 55% 30.22 in 10.0 mi Calm Calm - N/A   Clear
9:55 PM 24.8 °F - 12.2 °F 59% 30.23 in 10.0 mi Calm Calm - N/A   Clear
10:15 PM 24.8 °F - 12.2 °F 59% 30.24 in 10.0 mi Calm Calm - N/A   Clear
10:35 PM 24.8 °F - 12.2 °F 59% 30.25 in 10.0 mi Calm Calm - N/A   Clear
11:15 PM 19.4 °F 9.5 °F 12.2 °F 74% 30.25 in 10.0 mi NNW 8.1 mph - N/A   Clear
11:35 PM 19.4 °F 12.8 °F 10.4 °F 68% 30.26 in 10.0 mi North 4.6 mph - N/A   Clear
11:55 PM 19.4 °F 14.3 °F 12.2 °F 74% 30.25 in 10.0 mi North 3.5 mph - N/A   Clear
12:15 AM 17.6 °F 12.3 °F 8.6 °F 68% 30.25 in 10.0 mi North 3.5 mph - N/A   Clear
12:35 AM 17.6 °F 9.3 °F 12.2 °F 79% 30.25 in 10.0 mi North 5.8 mph - N/A   Clear
12:55 AM 15.8 °F 8.6 °F 8.6 °F 73% 30.25 in 10.0 mi North 4.6 mph - N/A   Clear